Wetbulb
57.68 57.32 57.50 57.71 57.64 57.30 57.07 57.06 57.38 57.30 57.53 57.74 57.92 58.23 58.27 58.61 58.27 54.99 48.32 54.82 56.54 67.04 67.56 53.80 60.53 57.46 55.46 54.61 61.02 68.27 58.65 54.31 55.30 56.47 57.94 63.21 61.50 65.46 66.66 64.05 65.10 66.18 65.42 66.54 67.64
57.78 57.47 57.66 57.63 57.24 57.10 57.08 57.14 57.03 57.15 57.04 57.27 57.68 57.91 58.26 58.52 53.53 50.79 57.82 63.51 65.31 68.34 56.34 50.81 56.49 55.25 51.99 53.62 56.11 60.97 56.63 56.99 60.63 61.00 59.88 63.10 63.23 62.21 63.01 62.78 62.93 64.06 66.91 67.72 67.32
57.66 57.83 57.34 57.30 57.38 57.33 57.16 57.18 57.04 57.31 57.26 57.03 57.33 57.80 58.11 57.13 48.83 51.05 66.98 66.24 68.71 69.03 52.38 50.61 53.58 55.58 52.39 54.10 55.66 62.75 59.19 61.01 61.60 61.86 64.08 62.91 62.59 63.48 61.16 60.53 62.62 62.41 64.39 65.79 66.05
57.79 57.59 57.47 57.48 57.29 57.14 57.10 57.04 57.19 57.45 57.11 56.98 57.22 57.44 57.90 52.13 43.56 56.10 69.90 67.64 70.61 60.73 50.40 49.50 51.87 52.14 50.79 51.15 55.59 60.30 64.49 62.81 63.94 62.68 62.77 63.00 63.83 61.34 61.86 63.46 65.78 66.06 66.30 66.03 65.48
58.01 57.95 57.15 57.68 57.39 57.18 57.35 57.46 57.51 57.13 56.49 56.72 57.87 57.77 52.91 47.22 49.61 58.63 71.16 68.25 63.86 51.72 48.45 47.32 52.12 52.42 50.26 52.59 61.79 60.74 63.13 63.35 64.90 64.58 63.87 64.95 62.62 62.28 63.12 65.63 67.22 67.10 66.75 65.79 65.85
58.02 57.91 57.65 57.38 57.15 57.39 57.41 56.99 57.07 56.96 56.31 56.75 58.02 57.84 49.17 42.15 55.34 62.84 61.56 59.64 55.23 49.18 46.73 46.97 51.58 55.14 52.45 55.30 56.24 64.28 63.52 62.12 63.05 63.24 64.42 63.00 62.59 63.69 62.33 66.28 65.92 66.00 65.67 66.24 65.95
57.73 57.87 57.57 57.13 56.92 57.05 56.89 56.48 56.72 56.61 56.44 56.49 57.94 56.16 49.00 45.72 59.70 61.05 58.37 54.03 54.19 49.49 47.25 47.33 49.65 49.88 52.72 57.94 63.76 62.41 59.66 61.36 60.91 61.82 62.52 63.78 60.32 60.40 64.94 65.52 64.57 64.79 65.42 66.08 66.83
57.46 57.55 57.20 56.94 56.69 56.66 56.24 55.96 56.05 57.08 56.79 57.61 58.14 52.35 43.58 55.14 56.81 56.62 57.96 55.91 54.62 50.01 46.85 48.48 50.44 50.36 50.87 62.80 62.81 59.53 58.76 53.92 59.02 61.91 62.34 61.00 53.62 61.83 65.11 64.32 63.04 64.04 64.57 65.33 66.48
57.15 57.17 56.91 56.38 56.26 55.95 55.61 55.53 56.36 57.58 58.66 57.98 51.31 48.14 48.79 60.38 54.91 56.32 56.60 54.52 51.29 47.10 46.56 52.04 49.68 46.37 50.90 55.42 52.17 54.21 51.37 54.34 56.41 61.46 60.62 59.81 55.37 61.78 64.78 63.64 62.27 63.33 63.64 64.07 65.37
57.24 56.86 56.30 55.51 55.65 55.14 54.26 55.38 56.53 56.21 57.61 58.04 56.43 47.47 50.86 52.22 54.00 52.61 54.79 54.82 49.17 48.32 48.97 46.73 45.16 44.12 43.62 43.61 41.15 47.22 50.64 54.65 54.64 58.30 59.50 57.19 57.08 60.64 63.01 63.47 61.02 62.51 63.57 63.78 63.97
57.06 56.37 54.72 53.94 53.82 52.98 50.76 49.00 47.98 47.74 52.80 50.08 49.72 51.67 53.81 54.60 54.37 53.14 54.31 52.88 49.51 48.31 43.46 46.59 43.24 40.72 43.47 45.43 47.99 52.36 52.28 53.69 57.32 59.65 57.37 56.45 56.92 58.13 61.58 61.87 60.19 58.87 61.65 62.74 63.94
56.65 55.95 54.96 53.98 53.66 53.08 49.33 45.94 48.41 50.54 46.69 53.44 55.47 54.91 56.65 53.73 49.87 51.85 54.52 50.09 47.16 43.32 45.06 43.60 40.67 46.75 48.77 48.51 48.35 46.38 49.77 53.65 56.40 58.65 57.00 55.61 56.43 59.63 60.47 60.73 60.07 57.76 61.75 62.66 63.86
56.41 56.11 55.02 54.37 53.77 50.53 48.35 50.41 52.53 51.41 44.79 50.00 53.47 54.05 53.89 52.30 49.24 49.46 50.85 48.19 46.13 42.77 42.64 41.14 45.52 49.98 48.97 47.60 51.00 48.23 51.89 53.86 53.57 54.73 57.23 56.35 53.47 56.50 59.83 60.99 60.71 60.64 62.54 63.83 64.16
56.11 55.99 55.21 53.54 50.50 49.72 49.56 52.55 53.60 51.98 40.98 46.41 48.33 53.04 50.60 50.53 47.47 54.02 50.60 47.91 45.96 43.93 43.41 42.26 47.03 47.10 45.10 45.87 48.72 44.78 57.80 54.49 52.48 51.48 48.76 55.71 44.41 52.16 57.02 57.67 58.69 59.24 59.46 61.90 63.78
55.73 55.39 53.60 52.86 47.49 48.28 52.03 52.44 52.71 50.49 33.46 49.55 47.70 53.77 48.91 47.25 48.10 49.21 51.35 48.31 43.35 44.23 42.65 42.72 43.43 44.38 43.50 45.08 53.52 52.32 57.96 55.04 54.91 53.22 52.10 52.18 47.57 49.47 56.17 54.99 56.46 57.64 59.50 60.59 64.09
55.00 54.52 53.23 50.17 47.54 51.24 53.54 52.30 50.99 42.13 35.65 45.84 48.99 47.04 46.21 46.43 48.33 50.25 48.10 49.00 49.25 45.86 44.89 45.11 48.07 44.55 48.64 55.32 56.88 58.58 54.68 55.26 53.88 51.89 45.42 49.41 49.43 50.02 52.65 55.03 57.25 57.35 59.36 61.11 63.54
53.65 52.73 51.24 52.62 49.00 52.04 52.31 50.15 41.37 34.78 45.53 42.89 42.95 45.78 44.87 43.19 46.33 48.03 45.71 42.17 41.25 37.97 38.23 43.62 44.59 49.66 58.12 54.18 56.20 50.54 44.65 42.53 41.23 43.65 42.86 50.86 49.54 50.07 55.83 57.71 59.08 58.50 58.75 61.12 62.84
51.80 50.96 50.34 51.95 50.71 52.05 50.77 45.88 36.05 44.37 40.37 43.72 43.53 46.02 43.57 45.16 43.46 45.54 43.77 41.57 43.30 41.42 37.42 36.40 37.88 42.79 49.44 53.95 51.21 48.39 44.77 42.92 38.27 39.94 44.49 51.15 46.50 50.26 57.64 59.97 60.67 61.65 60.89 62.62 61.98
50.80 47.32 48.22 51.07 51.94 50.17 47.86 39.45 39.21 39.30 43.11 42.94 44.27 42.73 43.73 47.76 46.68 45.37 42.45 43.71 44.43 42.20 38.45 36.22 38.97 46.95 48.57 53.19 53.61 49.81 45.73 50.82 46.38 47.03 45.16 47.85 51.01 55.39 58.08 59.05 60.32 60.14 60.58 61.69 62.27
48.63 48.92 49.14 53.71 53.71 50.36 44.41 40.66 42.94 46.07 43.79 44.55 40.02 42.66 39.56 44.39 44.85 43.05 43.54 47.22 47.26 48.44 44.87 41.66 37.38 43.83 47.78 49.75 53.72 48.90 51.06 44.40 43.56 39.43 37.69 45.45 45.39 45.91 54.37 58.10 58.93 59.14 58.91 60.83 62.69
49.86 46.98 51.01 53.71 52.82 47.60 40.60 40.85 46.61 46.21 47.07 44.04 41.86 40.68 40.23 42.79 43.33 42.31 43.33 47.68 48.86 48.29 46.54 42.50 39.85 42.75 44.55 42.40 42.31 42.57 40.70 42.15 43.29 43.65 40.71 41.30 44.58 53.42 54.30 58.87 58.44 58.67 59.48 60.64 62.44
47.09 42.85 52.55 52.96 46.49 39.70 40.44 45.04 48.58 45.40 45.51 44.92 45.56 44.19 42.27 45.42 42.68 41.97 42.58 46.06 51.80 47.59 43.71 44.43 38.65 36.75 41.58 46.41 46.76 42.62 42.38 41.95 38.73 37.81 42.23 44.49 43.42 57.98 58.04 59.32 59.26 59.33 58.79 60.45 63.30
43.28 44.88 52.36 50.41 41.05 38.75 41.53 46.06 48.39 44.22 42.68 43.56 43.39 44.97 45.96 43.96 40.98 45.23 47.24 51.81 50.79 50.34 44.97 45.58 38.13 34.27 38.52 42.54 45.96 44.19 47.00 43.88 37.74 36.22 35.96 36.91 40.36 56.57 57.10 56.58 58.63 57.72 59.57 60.78 62.11
45.50 42.55 47.01 46.27 42.98 41.61 40.48 43.42 43.70 46.95 45.17 45.24 43.75 45.47 43.27 44.08 44.64 43.50 45.40 50.43 51.76 51.75 58.44 49.75 37.11 36.88 34.89 40.20 42.55 44.17 49.69 50.57 39.73 35.20 34.84 38.59 42.41 54.19 55.03 55.73 57.15 58.49 59.55 60.61 61.73
45.77 43.37 45.63 44.06 46.55 45.60 42.06 43.01 44.82 42.85 45.40 45.16 42.73 45.02 43.22 40.00 42.96 41.11 43.92 46.17 49.62 52.80 48.36 44.96 39.72 38.70 41.13 46.31 49.59 48.38 48.82 50.71 49.57 46.76 36.43 40.69 46.01 53.60 54.64 54.84 56.05 57.52 59.47 61.25 62.00
42.93 47.68 49.59 47.12 46.70 44.50 41.53 41.77 43.48 44.80 43.99 42.07 42.20 43.60 45.71 42.10 43.44 40.35 41.78 42.39 42.51 46.40 43.27 44.15 40.44 41.25 42.13 48.50 49.16 45.80 48.11 50.01 52.02 51.30 50.94 50.87 50.93 57.06 56.75 55.83 56.64 58.45 59.73 60.83 62.57
46.87 50.13 50.21 46.16 46.08 45.05 45.52 48.81 46.03 46.55 46.73 46.44 45.42 42.88 43.70 44.00 47.27 44.37 44.54 43.41 42.92 43.34 42.04 42.07 40.33 39.31 36.57 44.12 45.69 41.81 45.33 46.88 52.01 51.62 50.85 46.53 49.80 54.23 54.86 56.75 56.93 57.94 59.84 60.78 62.83
MSLP
1016.95 1016.73 1016.59 1016.42 1016.21 1016.01 1015.85 1015.67 1015.45 1015.25 1015.00 1014.75 1014.59 1014.37 1014.07 1013.73 1013.10 1012.75 1011.84 1009.65 1009.43 1009.13 1009.22 1009.38 1009.63 1009.79 1010.01 1010.28 1010.38 1010.44 1011.29 1012.16 1012.25 1012.51 1012.70 1011.65 1010.87 1010.72 1010.61 1011.26 1011.76 1011.97 1012.90 1014.23 1015.41
1016.96 1016.73 1016.51 1016.31 1016.12 1015.91 1015.73 1015.56 1015.36 1015.14 1014.95 1014.70 1014.51 1014.30 1014.00 1013.65 1013.24 1011.85 1008.95 1008.87 1008.97 1009.17 1009.47 1009.44 1009.54 1009.63 1010.08 1010.13 1010.16 1010.47 1011.11 1011.87 1011.95 1012.02 1012.16 1011.80 1011.10 1010.67 1011.14 1011.70 1012.39 1012.91 1013.79 1014.64 1015.51
1017.00 1016.73 1016.47 1016.23 1015.98 1015.78 1015.61 1015.44 1015.24 1015.02 1014.83 1014.65 1014.46 1014.22 1013.89 1013.66 1012.82 1009.39 1007.85 1008.48 1008.78 1009.03 1009.09 1009.38 1009.44 1009.61 1010.09 1010.03 1009.80 1009.95 1010.36 1011.36 1011.37 1011.52 1011.92 1011.97 1011.29 1010.97 1011.00 1012.07 1012.22 1012.92 1014.04 1014.95 1015.61
1016.96 1016.72 1016.45 1016.16 1015.90 1015.70 1015.52 1015.30 1015.08 1014.87 1014.71 1014.53 1014.33 1014.03 1013.68 1013.49 1011.31 1008.14 1007.72 1008.08 1008.71 1009.08 1009.16 1009.29 1009.59 1009.84 1010.00 1009.91 1009.56 1009.67 1009.93 1010.74 1010.60 1010.97 1012.18 1012.14 1011.78 1011.28 1011.03 1011.49 1012.16 1013.01 1013.77 1014.74 1015.56
1016.89 1016.63 1016.35 1016.05 1015.76 1015.55 1015.35 1015.08 1014.93 1014.77 1014.60 1014.42 1014.19 1013.93 1013.63 1012.54 1009.87 1008.01 1007.79 1008.25 1008.94 1009.33 1009.34 1009.48 1009.68 1009.82 1009.85 1009.65 1009.58 1009.60 1010.13 1010.55 1010.77 1010.84 1011.95 1012.17 1011.66 1011.41 1011.26 1011.55 1012.41 1013.28 1014.16 1014.87 1015.50
1016.76 1016.45 1016.20 1015.97 1015.70 1015.43 1015.15 1014.88 1014.73 1014.61 1014.49 1014.36 1014.13 1013.94 1013.54 1011.24 1008.12 1008.05 1008.30 1008.81 1008.85 1009.33 1009.52 1009.57 1009.66 1009.51 1009.62 1009.68 1009.70 1009.85 1010.40 1011.17 1011.27 1011.46 1011.71 1011.70 1012.06 1012.33 1011.75 1011.81 1012.74 1013.41 1014.04 1014.66 1015.22
1016.68 1016.36 1016.03 1015.81 1015.49 1015.17 1014.89 1014.68 1014.54 1014.43 1014.30 1014.24 1014.06 1013.84 1013.01 1009.77 1008.27 1008.41 1008.55 1008.87 1008.97 1009.13 1009.58 1009.61 1009.46 1009.65 1009.58 1009.69 1010.01 1010.31 1010.99 1011.39 1011.70 1011.81 1011.58 1011.72 1012.26 1012.17 1011.51 1011.82 1012.66 1013.34 1013.89 1014.48 1015.03
1016.64 1016.29 1015.90 1015.63 1015.27 1014.95 1014.76 1014.43 1014.23 1014.16 1014.04 1013.94 1013.88 1013.70 1011.70 1008.58 1008.22 1008.52 1008.64 1008.70 1008.85 1009.25 1009.56 1009.40 1009.35 1009.61 1009.63 1009.74 1010.03 1010.61 1011.25 1011.99 1012.61 1012.26 1012.55 1012.21 1012.64 1012.69 1011.71 1011.89 1012.73 1013.44 1013.91 1014.32 1014.84
1016.63 1016.21 1015.83 1015.51 1015.08 1014.73 1014.38 1014.03 1013.79 1013.74 1013.77 1013.85 1013.91 1013.23 1010.19 1008.10 1008.31 1007.47 1007.95 1008.33 1008.77 1009.41 1009.41 1009.17 1009.39 1009.80 1009.85 1010.34 1010.83 1011.31 1011.72 1012.08 1012.84 1012.77 1012.82 1012.84 1013.43 1013.29 1012.40 1012.19 1012.69 1013.26 1013.73 1014.28 1014.93
1016.57 1016.17 1015.79 1015.39 1014.99 1014.57 1014.06 1013.36 1013.38 1013.62 1013.71 1013.67 1013.14 1012.60 1009.49 1008.08 1007.37 1007.17 1007.49 1007.90 1008.42 1008.94 1009.23 1009.30 1009.86 1010.31 1010.66 1010.82 1011.16 1011.48 1011.91 1012.42 1012.74 1013.15 1013.14 1013.27 1013.66 1013.37 1013.13 1012.58 1012.59 1012.94 1013.57 1014.23 1014.72
1016.43 1016.09 1015.75 1015.37 1015.03 1014.67 1014.05 1013.59 1013.63 1013.28 1012.91 1011.77 1011.10 1010.42 1008.78 1007.47 1007.01 1006.95 1007.05 1007.87 1008.23 1008.67 1009.20 1009.61 1010.49 1010.61 1010.52 1010.51 1010.58 1010.87 1011.48 1012.30 1012.72 1013.27 1013.64 1013.68 1013.80 1013.68 1013.15 1012.55 1012.53 1012.88 1013.34 1013.95 1014.23
1016.26 1015.89 1015.48 1015.10 1014.83 1014.55 1014.50 1013.67 1012.47 1012.05 1011.43 1009.93 1009.71 1009.33 1008.18 1007.67 1007.37 1006.85 1006.81 1007.73 1008.37 1009.01 1009.32 1009.97 1010.10 1009.93 1009.97 1010.21 1010.41 1010.67 1011.53 1012.49 1013.77 1013.83 1014.07 1014.02 1013.93 1013.77 1013.45 1012.84 1012.64 1012.83 1013.03 1013.49 1014.25
1016.05 1015.64 1015.21 1014.71 1014.39 1014.36 1013.99 1012.67 1011.56 1011.47 1011.47 1009.32 1008.51 1007.95 1007.31 1007.43 1007.21 1006.94 1007.05 1007.52 1008.18 1008.88 1009.34 1009.83 1009.47 1009.15 1009.62 1009.96 1010.10 1010.37 1011.33 1012.11 1013.00 1013.53 1014.01 1014.09 1014.13 1014.01 1013.62 1013.20 1013.02 1012.84 1012.76 1013.09 1013.59
1015.90 1015.49 1015.03 1014.51 1014.53 1014.17 1013.00 1011.45 1011.15 1011.23 1011.25 1009.21 1007.82 1006.70 1006.69 1006.81 1006.98 1006.62 1006.94 1007.50 1008.22 1008.82 1009.40 1009.53 1008.82 1008.85 1009.26 1009.83 1010.17 1011.18 1011.36 1012.13 1012.77 1013.21 1014.37 1014.14 1014.37 1013.61 1013.38 1013.29 1013.07 1012.87 1012.80 1012.97 1013.38
1015.73 1015.33 1015.06 1014.80 1014.59 1013.66 1011.69 1011.15 1010.93 1010.97 1010.70 1008.39 1007.22 1006.16 1006.65 1007.09 1006.95 1006.86 1006.84 1007.45 1008.27 1008.83 1009.43 1009.29 1008.73 1008.63 1008.88 1008.93 1009.78 1010.78 1011.31 1012.31 1012.82 1013.55 1014.38 1014.37 1014.79 1012.70 1012.65 1012.85 1012.43 1012.57 1012.67 1012.66 1013.03
1015.43 1015.12 1014.98 1014.81 1014.67 1012.24 1011.38 1011.07 1010.95 1011.42 1009.96 1008.14 1007.09 1006.76 1007.21 1007.14 1007.15 1007.17 1007.30 1007.55 1007.89 1008.56 1009.02 1008.79 1007.96 1008.01 1008.31 1008.67 1009.17 1010.73 1011.78 1012.80 1013.88 1014.68 1014.81 1013.84 1013.95 1012.31 1011.86 1011.22 1011.23 1011.71 1012.05 1012.22 1012.61
1014.93 1014.69 1014.84 1014.17 1012.74 1011.68 1011.18 1011.27 1011.66 1011.25 1009.78 1008.71 1007.77 1007.23 1007.34 1007.69 1007.63 1007.68 1008.06 1008.27 1008.73 1009.14 1009.49 1008.75 1007.96 1007.99 1008.13 1009.48 1010.26 1010.72 1011.73 1013.64 1014.61 1015.08 1014.57 1013.75 1013.37 1011.44 1010.25 1009.67 1009.65 1010.40 1011.15 1011.49 1011.81
1014.12 1013.85 1013.53 1012.65 1011.96 1011.61 1011.57 1011.81 1011.65 1010.88 1009.84 1008.82 1008.26 1007.75 1008.06 1008.14 1008.38 1008.55 1008.84 1009.23 1009.09 1009.52 1009.98 1009.57 1008.47 1007.83 1007.84 1008.33 1008.96 1010.37 1010.76 1011.55 1013.38 1014.64 1014.30 1013.69 1012.75 1010.48 1009.27 1008.86 1008.86 1008.88 1009.73 1010.53 1011.08
1013.43 1013.42 1013.23 1011.23 1011.54 1012.31 1012.30 1012.49 1011.88 1010.63 1009.51 1009.05 1008.65 1008.85 1008.92 1008.66 1008.81 1009.20 1009.50 1009.50 1009.33 1009.43 1009.91 1009.83 1008.73 1007.60 1007.12 1007.42 1007.89 1009.30 1009.81 1009.91 1012.06 1013.43 1013.58 1013.39 1012.28 1009.83 1008.66 1008.33 1008.37 1008.39 1009.13 1009.56 1010.08
1013.54 1013.21 1012.01 1010.82 1011.01 1011.69 1012.41 1012.67 1011.52 1010.09 1008.99 1008.91 1009.35 1009.71 1009.97 1009.81 1009.79 1009.95 1009.97 1009.69 1009.49 1009.34 1009.45 1010.25 1009.83 1008.07 1007.12 1007.11 1007.68 1007.80 1008.31 1009.90 1011.29 1012.70 1013.11 1012.98 1011.77 1010.41 1008.65 1008.44 1008.04 1007.62 1008.01 1008.63 1009.14
1013.52 1013.02 1011.23 1010.89 1010.95 1012.18 1012.82 1012.14 1010.79 1009.22 1008.71 1008.87 1009.41 1009.77 1010.26 1010.47 1010.69 1010.73 1010.47 1010.09 1009.70 1009.59 1009.71 1010.15 1010.55 1009.31 1008.20 1007.89 1008.21 1008.07 1008.34 1009.49 1010.45 1011.22 1011.67 1011.97 1011.01 1007.65 1007.62 1008.21 1008.13 1007.99 1008.06 1008.27 1008.73
1014.15 1013.42 1011.02 1011.18 1012.05 1012.88 1012.65 1011.23 1010.01 1009.21 1008.51 1008.79 1009.10 1009.78 1010.31 1010.67 1011.11 1011.05 1010.72 1010.23 1009.83 1009.94 1010.36 1010.54 1011.10 1010.80 1009.59 1008.55 1008.47 1008.57 1008.73 1009.43 1010.49 1011.17 1011.15 1010.50 1009.32 1008.10 1008.39 1008.79 1009.00 1009.02 1008.94 1009.04 1009.23
1015.49 1013.98 1011.61 1011.67 1012.40 1012.98 1011.86 1010.74 1009.69 1009.11 1008.69 1008.88 1009.41 1009.85 1010.31 1010.94 1011.50 1011.40 1010.91 1010.19 1010.08 1010.23 1010.71 1010.87 1011.58 1011.55 1010.39 1009.75 1009.26 1009.41 1009.84 1009.86 1010.06 1010.47 1010.82 1010.59 1009.58 1009.57 1009.40 1009.84 1010.02 1010.13 1009.81 1009.80 1010.02
1015.89 1014.65 1012.82 1012.24 1012.25 1012.27 1011.77 1010.55 1009.36 1008.64 1008.64 1008.91 1009.66 1009.86 1010.63 1011.36 1011.47 1011.57 1011.32 1010.66 1010.59 1010.69 1010.92 1011.15 1012.43 1012.42 1011.93 1011.35 1010.87 1010.89 1010.80 1010.37 1010.49 1011.19 1011.15 1010.43 1009.85 1010.83 1010.79 1010.97 1011.29 1011.02 1010.70 1010.33 1010.38
1016.01 1015.13 1014.03 1013.35 1012.71 1012.23 1011.60 1010.29 1009.37 1009.08 1008.96 1009.17 1009.95 1010.13 1010.75 1011.60 1011.78 1011.83 1011.69 1011.50 1011.19 1011.38 1011.49 1012.19 1013.09 1012.87 1012.14 1011.33 1011.11 1011.72 1011.53 1011.15 1011.11 1011.56 1011.60 1010.69 1010.83 1011.90 1012.05 1011.93 1012.09 1011.83 1011.27 1010.89 1010.85
1016.24 1015.57 1014.33 1013.89 1013.00 1012.23 1011.35 1010.58 1009.52 1009.18 1009.10 1009.43 1009.82 1010.31 1010.56 1011.22 1011.56 1011.89 1012.06 1012.28 1012.28 1012.22 1012.72 1013.41 1013.76 1013.53 1012.86 1011.97 1011.52 1011.95 1011.99 1011.64 1011.66 1011.71 1011.72 1011.67 1011.94 1012.35 1012.57 1012.53 1012.47 1012.21 1012.01 1011.69 1011.27
1016.37 1015.58 1015.15 1014.19 1013.43 1012.55 1011.63 1010.64 1009.33 1008.99 1009.19 1009.03 1009.44 1010.11 1010.72 1010.85 1011.25 1011.63 1012.02 1012.59 1012.71 1013.13 1013.81 1014.24 1014.50 1014.66 1013.93 1013.21 1012.18 1012.16 1012.72 1012.57 1012.37 1012.20 1012.20 1012.37 1012.53 1012.78 1012.94 1012.91 1013.04 1013.00 1012.90 1012.45 1012.12
Wind_Speed
10 10 9 9 10 9 9 9 9 10 10 11 12 12 13 14 14 1 6 10 7 7 3 2 4 3 2 1 5 1 3 2 3 5 2 10 5 4 5 15 6 1 11 14 16
10 10 10 9 9 9 9 9 9 9 10 11 12 12 12 13 3 6 12 8 13 3 1 1 3 5 1 2 3 3 3 4 4 6 6 11 5 9 9 9 14 18 13 19 18
11 10 10 10 9 9 9 9 9 9 9 10 11 12 12 8 3 7 4 16 11 8 2 2 3 3 2 2 3 4 3 9 10 14 3 5 4 6 18 10 19 22 20 19 18
11 11 11 11 10 10 10 9 9 9 9 10 10 11 13 1 3 1 3 16 11 4 2 3 3 4 1 2 3 3 2 15 10 14 6 8 4 11 13 8 19 21 23 20 17
11 11 12 11 11 10 10 9 8 8 9 9 9 10 4 2 8 2 4 15 7 4 4 4 4 4 1 2 2 2 5 6 4 7 9 11 11 10 11 17 18 20 19 18 15
11 12 12 12 12 11 10 11 9 9 8 8 8 8 2 2 2 6 9 8 7 6 3 4 5 5 3 2 1 3 9 6 5 1 5 12 10 5 8 17 18 21 19 17 16
12 12 12 12 13 12 12 12 11 9 7 6 5 3 1 9 5 5 7 5 3 4 5 2 1 3 2 1 1 5 5 2 8 6 4 4 12 2 8 21 20 20 16 13 14
12 13 13 13 14 14 13 13 11 8 5 5 3 1 7 4 3 2 4 3 3 3 3 1 4 2 1 2 3 3 2 2 3 5 3 1 2 4 13 18 19 18 15 13 15
12 13 14 13 14 15 15 16 12 7 4 3 1 1 9 6 3 4 7 3 6 3 3 3 3 3 1 3 4 6 2 3 3 3 4 2 5 8 8 11 17 16 17 15 13
12 13 14 15 14 14 20 11 3 2 3 5 4 3 4 4 4 4 4 5 3 4 3 3 4 3 4 4 5 4 3 1 1 4 2 1 5 6 13 6 16 19 18 15 15
13 13 15 15 15 15 10 1 4 2 3 6 4 4 6 6 3 2 5 6 2 5 4 2 4 5 6 4 4 3 3 3 4 8 4 2 2 4 8 4 8 11 15 15 18
13 12 13 16 15 14 2 2 3 3 10 9 5 6 6 1 3 1 4 4 4 3 2 6 2 7 4 4 4 2 0 5 6 5 3 1 4 2 3 4 1 10 17 17 15
14 13 13 14 16 1 0 6 2 4 1 9 5 4 5 6 3 3 4 1 4 2 2 5 5 4 4 3 3 4 4 8 7 3 4 3 1 5 4 2 3 2 18 17 19
14 14 14 19 3 3 5 2 5 5 6 8 4 5 3 3 2 6 4 4 4 6 2 4 6 6 4 5 8 6 4 8 11 11 3 2 4 6 9 6 5 6 6 16 15
15 13 14 8 3 1 4 6 5 4 4 1 2 1 3 4 3 2 3 5 1 2 4 8 4 4 5 7 8 2 8 8 5 6 3 2 1 6 14 14 11 8 8 11 17
15 12 11 1 1 8 9 7 4 7 4 5 2 2 3 2 2 3 2 2 2 2 2 8 4 5 1 1 9 18 18 12 7 3 2 5 6 4 6 23 15 6 8 9 17
16 10 5 3 4 5 6 5 6 5 5 7 4 3 3 2 2 5 3 2 2 3 4 5 3 3 10 14 3 6 6 4 5 3 3 3 4 8 6 10 20 13 11 11 17
19 8 6 6 3 6 4 6 7 3 5 4 4 2 2 3 3 3 3 3 2 4 1 1 6 7 3 9 12 9 6 6 7 6 4 3 3 6 4 4 18 19 17 14 17
15 1 3 5 8 1 6 6 6 4 2 5 5 10 9 6 5 3 4 1 1 3 2 1 6 5 5 6 10 7 5 4 8 3 2 2 6 10 12 15 11 21 15 19 19
2 3 4 5 7 5 6 3 4 6 1 4 5 2 3 7 5 4 2 2 3 2 5 2 4 3 6 4 4 6 7 3 2 6 4 2 0 9 7 8 7 17 21 20 20
2 4 3 4 3 6 3 6 5 5 1 4 3 3 1 2 3 2 2 1 3 6 2 2 2 8 3 3 6 3 1 6 5 4 5 5 7 13 4 8 7 9 13 17 20
2 2 3 4 4 1 3 5 4 5 2 3 5 2 2 2 2 2 2 2 4 2 3 3 4 3 6 5 5 1 4 4 5 4 2 3 6 6 11 8 8 4 6 8 13
2 3 4 3 2 3 6 6 7 3 1 2 3 4 3 4 3 1 3 4 4 4 1 2 2 4 10 7 6 6 5 3 3 3 5 6 5 5 11 12 8 6 5 4 3
2 3 5 4 1 5 3 6 2 1 3 4 4 6 4 5 4 1 3 2 4 2 2 5 2 5 6 5 2 4 5 4 4 4 2 5 4 6 6 9 6 5 4 3 4
2 3 3 3 4 4 4 4 3 3 2 3 3 4 4 2 2 2 2 5 3 5 4 5 1 2 4 5 8 3 4 6 4 1 6 4 1 4 3 6 4 3 3 2 5
1 2 5 2 4 6 4 4 3 3 5 2 6 4 3 5 6 4 3 2 3 4 4 5 1 2 1 5 10 6 10 4 5 4 1 3 4 3 2 4 7 6 6 4 5
3 3 3 3 3 2 2 5 4 5 1 7 8 6 3 4 6 3 4 3 1 5 2 3 2 3 3 3 4 5 5 6 0 4 2 2 2 1 6 9 5 6 6 6 1
Wind_Direction
357 355 349 344 341 339 337 332 328 327 323 323 323 327 329 329 321 165 244 220 189 227 2 329 140 141 135 244 194 95 77 154 182 138 195 283 145 131 84 122 125 94 136 134 131
356 352 349 347 347 343 340 336 331 326 322 319 323 325 327 332 309 251 241 217 218 226 191 227 116 124 46 251 206 153 113 147 258 180 199 214 217 128 125 128 109 107 114 132 142
352 349 348 346 344 342 338 336 331 328 324 320 321 324 322 333 296 250 223 206 207 198 146 98 105 85 140 239 240 174 185 146 229 245 162 236 129 134 145 136 149 145 145 147 151
349 346 345 345 344 339 334 332 329 326 324 324 324 322 316 235 138 318 82 178 185 183 80 117 124 106 198 219 244 131 86 176 196 215 185 234 134 167 165 165 151 147 153 153 158
345 345 344 340 338 334 330 323 321 320 319 321 322 326 331 341 255 319 57 156 116 140 178 146 132 137 253 235 97 122 109 72 151 202 203 199 179 187 202 147 151 144 152 157 159
345 342 337 337 334 328 326 322 318 310 311 311 319 323 327 307 266 129 96 122 149 156 179 140 174 233 299 6 178 123 97 112 74 97 170 172 127 241 160 145 150 153 165 165 165
346 336 332 335 330 326 323 319 308 302 300 299 308 303 19 235 66 109 124 166 181 173 152 218 134 13 338 50 90 122 103 76 21 5 74 350 154 88 152 154 159 163 170 164 165
339 332 332 334 328 320 319 307 299 287 281 266 274 294 250 239 312 186 175 263 196 173 154 133 199 290 243 161 69 78 84 90 338 350 26 285 100 248 169 160 164 165 168 156 174
332 330 331 330 326 320 315 305 288 265 232 190 175 93 283 311 184 215 160 190 125 130 217 243 161 211 98 92 39 16 75 60 106 328 74 321 160 212 292 186 170 173 172 173 162
326 330 331 331 328 325 324 310 150 148 208 191 251 339 288 314 248 180 189 142 149 152 138 115 62 77 30 89 198 169 157 108 60 211 151 165 140 165 232 234 176 179 174 169 169
328 333 335 330 331 336 350 74 6 5 155 229 225 245 274 275 252 200 151 121 91 52 118 125 96 189 217 209 165 141 114 86 7 12 359 80 137 145 232 252 164 150 160 170 179
325 331 327 326 324 325 311 55 215 177 311 228 221 266 263 234 290 327 107 121 126 190 102 26 231 219 188 205 237 103 22 125 62 310 348 61 217 105 211 253 353 150 169 173 169
321 320 320 319 315 344 341 236 231 323 101 300 194 202 224 137 207 267 113 106 116 107 128 153 236 77 136 131 59 2 263 163 130 135 225 210 258 220 234 286 240 180 179 170 173
318 318 319 327 327 328 265 237 285 178 57 285 311 275 134 129 266 212 158 123 40 199 212 243 257 231 176 191 157 224 173 133 137 114 264 23 273 207 217 216 208 198 172 177 186
315 315 328 321 292 237 294 321 288 65 32 87 258 339 71 140 161 305 135 54 224 218 101 260 270 204 186 217 141 203 160 148 113 69 187 172 24 266 176 231 227 203 201 179 179
311 310 326 100 243 248 300 311 62 42 8 338 149 212 110 320 315 111 140 70 177 229 194 241 247 169 148 180 132 133 92 66 56 48 272 204 182 267 192 207 222 171 187 177 180
311 288 271 293 233 306 294 43 45 82 320 332 292 288 182 198 199 143 166 144 161 31 350 314 265 90 124 77 21 80 79 99 50 14 257 327 169 261 223 220 210 190 186 184 182
315 277 227 226 273 350 41 50 71 248 261 304 310 55 169 114 22 60 77 18 11 71 9 317 341 167 180 158 181 186 161 153 157 182 230 85 263 265 180 215 204 211 191 172 175
317 51 260 254 199 126 70 56 202 224 268 337 357 46 359 357 106 81 22 41 188 157 158 314 274 297 206 159 147 213 199 169 98 0 121 281 284 277 239 234 210 215 195 177 176
354 346 267 138 158 69 72 226 231 224 182 71 54 74 18 341 56 43 2 304 343 316 144 209 306 305 299 90 315 173 159 99 31 150 152 248 103 254 229 211 227 196 198 185 172
43 33 269 200 99 49 132 228 252 269 259 81 32 31 56 44 56 48 306 12 10 339 33 106 117 292 350 36 182 315 230 56 118 139 155 167 241 230 187 201 192 208 201 184 174
22 30 299 125 57 43 174 204 242 251 42 64 108 75 107 94 60 1 317 233 353 327 10 340 141 289 249 295 322 211 121 129 137 219 202 153 273 11 83 84 87 64 167 189 185
46 256 307 82 161 289 292 283 217 200 43 102 39 74 41 106 95 240 312 284 5 64 48 292 348 16 346 6 4 51 353 299 103 58 191 136 264 55 83 62 58 68 88 88 122
52 1 318 55 100 149 267 266 185 119 114 89 119 82 79 39 15 107 323 339 4 44 40 97 106 153 174 211 232 9 341 332 105 110 206 210 270 58 72 88 44 39 38 104 142
63 260 191 307 323 319 211 286 161 131 50 61 47 99 126 118 32 5 330 321 349 349 38 78 144 296 235 236 113 67 6 18 73 69 182 296 166 54 51 109 69 40 40 43 178
78 3 355 288 307 342 8 329 184 181 137 223 125 152 121 144 177 198 199 190 268 348 53 3 237 301 147 20 103 86 18 7 65 2 171 27 82 94 66 78 61 18 21 348 180
317 322 105 268 312 62 265 297 235 136 39 174 150 109 134 187 187 212 174 88 257 167 139 90 77 40 274 318 274 52 339 338 181 23 270 202 297 58 73 69 51 49 22 344 308